Terminal Aerodrome Forecast
Issued by NWS

Home | Current Version | Previous Version | Text Only | Print | Product List | Glossary Off
Versions: 1 2 3 4 5 6 7 8 9 10 11 12 13 14 15 16 17 18 19 20 21 22 23

000
FTUS43 KICT 181100
TAFRSL
TAF
KRSL 181132Z 1812/1912 08007KT P6SM SCT010 BKN025
      TEMPO 1812/1816 6SM BR BKN009
     FM181600 12008KT P6SM BKN035
     FM190700 15009KT P6SM SCT012 BKN035=

USA.gov is the U.S. government's official web portal to all federal, state and local government web resources and services.